| time (UTC) | temp C | wind direction | speed KPH | gust KPH | rain 1hr cm | rain 24hr cm | rain mn cm | humidity % | barometer mb |
| 20260902233840 | 31 | 171 | 0.0 | 3.2 | 0.00 | 0.00 | 0.00 | 63 | 1017.5 |
| 20260902232835 | 31 | 173 | 0.0 | 6.4 | 0.00 | 0.00 | 0.00 | 62 | 1017.5 |
| 20260902231828 | 31 | 166 | 1.6 | 8.0 | 0.00 | 0.00 | 0.00 | 61 | 1017.5 |
| 20260902230820 | 31 | 139 | 0.0 | 8.0 | 0.00 | 0.00 | 0.00 | 60 | 1017.6 |
| 20260902225824 | 32 | 155 | 1.6 | 4.8 | 0.00 | 0.00 | 0.00 | 60 | 1017.6 |
| 20260902224826 | 32 | 155 | 3.2 | 8.0 | 0.00 | 0.00 | 0.00 | 59 | 1017.6 |
| 20260902223846 | 32 | 155 | 4.8 | 8.0 | 0.00 | 0.00 | 0.00 | 58 | 1017.6 |
| 20260902222821 | 32 | 179 | 4.8 | 9.7 | 0.00 | 0.00 | 0.00 | 58 | 1017.8 |
| 20260902221840 | 32 | 144 | 4.8 | 9.7 | 0.00 | 0.00 | 0.00 | 57 | 1017.8 |
| 20260902220832 | 32 | 180 | 3.2 | 11.3 | 0.00 | 0.00 | 0.00 | 57 | 1017.7 |
| 20260902215833 | 32 | 190 | 4.8 | 11.3 | 0.00 | 0.00 | 0.00 | 57 | 1017.7 |
| 20260902214818 | 32 | 171 | 4.8 | 11.3 | 0.00 | 0.00 | 0.00 | 56 | 1017.7 |
| 20260902213855 | 33 | 171 | 3.2 | 11.3 | 0.00 | 0.00 | 0.00 | 56 | 1017.8 |
| 20260902212851 | 33 | 163 | 1.6 | 8.0 | 0.00 | 0.00 | 0.00 | 56 | 1017.8 |
| 20260902211823 | 33 | 235 | 3.2 | 22.5 | 0.00 | 0.00 | 0.00 | 55 | 1017.8 |
| 20260902210814 | 33 | 160 | 4.8 | 11.3 | 0.00 | 0.00 | 0.00 | 55 | 1017.8 |
| 20260902205837 | 33 | 86 | 1.6 | 8.0 | 0.00 | 0.00 | 0.00 | 55 | 1017.9 |
| 20260902204819 | 34 | 163 | 6.4 | 11.3 | 0.00 | 0.00 | 0.00 | 53 | 1018.0 |
| 20260902203837 | 33 | 166 | 3.2 | 14.5 | 0.00 | 0.00 | 0.00 | 53 | 1018.1 |
| 20260902202856 | 33 | 180 | 8.0 | 14.5 | 0.00 | 0.00 | 0.00 | 54 | 1018.1 |
| 20260902201826 | 33 | 172 | 4.8 | 9.7 | 0.00 | 0.00 | 0.00 | 54 | 1018.2 |
| 20260902200818 | 34 | 159 | 4.8 | 12.9 | 0.00 | 0.00 | 0.00 | 53 | 1018.2 |
| 20260902195823 | 34 | 148 | 6.4 | 12.9 | 0.00 | 0.00 | 0.00 | 53 | 1018.2 |
| 20260902194826 | 34 | 142 | 3.2 | 9.7 | 0.00 | 0.00 | 0.00 | 51 | 1018.4 |
| 20260902193818 | 34 | 139 | 3.2 | 8.0 | 0.00 | 0.00 | 0.00 | 52 | 1018.5 |
| 20260902192855 | 34 | 317 | 4.8 | 12.9 | 0.00 | 0.00 | 0.00 | 52 | 1018.7 |
| 20260902191827 | 34 | 319 | 3.2 | 8.0 | 0.00 | 0.00 | 0.00 | 53 | 1018.8 |
| 20260902190818 | 33 | 138 | 1.6 | 4.8 | 0.00 | 0.00 | 0.00 | 56 | 1018.8 |
| 20260902185843 | 32 | 144 | 0.0 | 8.0 | 0.00 | 0.00 | 0.00 | 56 | 1019.0 |
| 20260902184825 | 33 | 321 | 3.2 | 8.0 | 0.00 | 0.00 | 0.00 | 56 | 1019.1 |
| 20260902183818 | 33 | 148 | 3.2 | 6.4 | 0.00 | 0.00 | 0.00 | 56 | 1019.1 |
| 20260902182836 | 33 | 313 | 4.8 | 14.5 | 0.00 | 0.00 | 0.00 | 57 | 1019.1 |
| 20260902181828 | 33 | 282 | 6.4 | 14.5 | 0.00 | 0.00 | 0.00 | 56 | 1019.2 |
| 20260902180819 | 33 | 186 | 6.4 | 16.1 | 0.00 | 0.00 | 0.00 | 56 | 1019.2 |
| 20260902175819 | 33 | 166 | 3.2 | 9.7 | 0.00 | 0.00 | 0.00 | 57 | 1019.3 |
| 20260902174823 | 33 | 268 | 1.6 | 12.9 | 0.00 | 0.00 | 0.00 | 60 | 1019.3 |
| 20260902173815 | 32 | 179 | 1.6 | 14.5 | 0.00 | 0.00 | 0.00 | 61 | 1019.4 |
| 20260902172833 | 33 | 192 | 4.8 | 12.9 | 0.00 | 0.00 | 0.00 | 61 | 1019.5 |
| 20260902171853 | 32 | 307 | 3.2 | 12.9 | 0.00 | 0.00 | 0.00 | 62 | 1019.7 |
| 20260902170821 | 32 | 166 | 3.2 | 9.7 | 0.00 | 0.00 | 0.00 | 62 | 1019.8 |
| 20260902165823 | 32 | 182 | 6.4 | 12.9 | 0.00 | 0.00 | 0.00 | 61 | 1019.7 |
| 20260902164853 | 32 | 166 | 3.2 | 12.9 | 0.00 | 0.00 | 0.00 | 62 | 1019.8 |
| 20260902163825 | 32 | 182 | 4.8 | 11.3 | 0.00 | 0.00 | 0.00 | 62 | 1020.0 |
| 20260902162816 | 32 | 233 | 1.6 | 9.7 | 0.00 | 0.00 | 0.00 | 64 | 1020.1 |
| 20260902161835 | 32 | 195 | 6.4 | 12.9 | 0.00 | 0.00 | 0.00 | 62 | 1020.1 |
| 20260902160826 | 31 | 310 | 3.2 | 9.7 | 0.00 | 0.00 | 0.00 | 63 | 1020.2 |
| 20260902155829 | 31 | 182 | 1.6 | 12.9 | 0.00 | 0.00 | 0.00 | 65 | 1020.3 |
| 20260902154830 | 31 | 323 | 1.6 | 4.8 | 0.00 | 0.00 | 0.00 | 67 | 1020.4 |
| 20260902153820 | 30 | 163 | 0.0 | 8.0 | 0.00 | 0.00 | 0.00 | 68 | 1020.4 |
| 20260902152816 | 30 | 288 | 0.0 | 6.4 | 0.00 | 0.00 | 0.00 | 67 | 1020.4 |
| 20260902151836 | 30 | 310 | 0.0 | 9.7 | 0.00 | 0.00 | 0.00 | 69 | 1020.4 |
| 20260902150831 | 29 | 298 | 0.0 | 4.8 | 0.00 | 0.00 | 0.00 | 70 | 1020.5 |
| 20260902145834 | 29 | 299 | 0.0 | 4.8 | 0.00 | 0.00 | 0.00 | 71 | 1020.4 |
| 20260902144816 | 28 | 304 | 0.0 | 6.4 | 0.00 | 0.00 | 0.00 | 72 | 1020.4 |
| 20260902143836 | 28 | 247 | 0.0 | 3.2 | 0.00 | 0.00 | 0.00 | 73 | 1020.4 |
| 20260902142828 | 27 | 313 | 4.8 | 11.3 | 0.00 | 0.00 | 0.00 | 74 | 1020.4 |
| 20260902141821 | 27 | 161 | 1.6 | 8.0 | 0.00 | 0.00 | 0.00 | 75 | 1020.4 |
| 20260902140839 | 27 | 298 | 1.6 | 4.8 | 0.00 | 0.00 | 0.00 | 76 | 1020.4 |
| 20260902135842 | 26 | 290 | 1.6 | 9.7 | 0.00 | 0.00 | 0.00 | 77 | 1020.4 |
| 20260902134823 | 26 | 169 | 3.2 | 6.4 | 0.00 | 0.00 | 0.00 | 78 | 1020.4 |
| 20260902133814 | 25 | 169 | 1.6 | 8.0 | 0.00 | 0.00 | 0.00 | 78 | 1020.4 |
| 20260902132834 | 25 | 169 | 1.6 | 8.0 | 0.00 | 0.00 | 0.00 | 78 | 1020.5 |
| 20260902131825 | 25 | 170 | 1.6 | 4.8 | 0.00 | 0.00 | 0.00 | 78 | 1020.4 |
| 20260902130817 | 25 | 172 | 1.6 | 6.4 | 0.00 | 0.00 | 0.00 | 78 | 1020.5 |
| 20260902125820 | 24 | 173 | 1.6 | 9.7 | 0.00 | 0.00 | 0.00 | 79 | 1020.4 |
| 20260902124824 | 24 | 148 | 3.2 | 6.4 | 0.00 | 0.00 | 0.00 | 79 | 1020.3 |
| 20260902123815 | 24 | 163 | 0.0 | 0.0 | 0.00 | 0.00 | 0.00 | 79 | 1020.2 |
| 20260902122834 | 23 | 166 | 0.0 | 0.0 | 0.00 | 0.00 | 0.00 | 79 | 1020.1 |
| 20260902121825 | 23 | 165 | 0.0 | 0.0 | 0.00 | 0.00 | 0.00 | 79 | 1019.9 |
| 20260902120816 | 23 | 169 | 0.0 | 0.0 | 0.00 | 0.00 | 0.00 | 79 | 1019.9 |
| 20260902115819 | 22 | 169 | 0.0 | 0.0 | 0.00 | 0.00 | 0.00 | 81 | 1019.9 |
| 20260902114824 | 22 | 169 | 0.0 | 0.0 | 0.00 | 0.00 | 0.00 | 82 | 1019.7 |
| 20260902113815 | 22 | 169 | 0.0 | 0.0 | 0.00 | 0.00 | 0.00 | 82 | 1019.7 |
| 20260902112826 | 22 | 169 | 0.0 | 0.0 | 0.00 | 0.00 | 0.00 | 82 | 1019.6 |
| 20260902111841 | 22 | 169 | 0.0 | 0.0 | 0.00 | 0.00 | 0.00 | 82 | 1019.5 |
| 20260902110832 | 22 | 169 | 0.0 | 0.0 | 0.00 | 0.00 | 0.00 | 81 | 1019.5 |
| 20260902105815 | 22 | 169 | 0.0 | 0.0 | 0.00 | 0.00 | 0.00 | 81 | 1019.5 |
| 20260902104838 | 22 | 169 | 0.0 | 0.0 | 0.00 | 0.00 | 0.00 | 81 | 1019.4 |
| 20260902103830 | 22 | 169 | 0.0 | 0.0 | 0.00 | 0.00 | 0.00 | 81 | 1019.4 |
| 20260902102825 | 22 | 169 | 0.0 | 0.0 | 0.00 | 0.00 | 0.00 | 81 | 1019.4 |
| 20260902101822 | 22 | 169 | 0.0 | 0.0 | 0.00 | 0.00 | 0.00 | 81 | 1019.3 |
| 20260902100839 | 22 | 169 | 0.0 | 0.0 | 0.00 | 0.00 | 0.00 | 81 | 1019.3 |
| 20260902095840 | 23 | 169 | 0.0 | 0.0 | 0.00 | 0.00 | 0.00 | 80 | 1019.2 |
| 20260902094821 | 23 | 169 | 0.0 | 0.0 | 0.00 | 0.00 | 0.00 | 80 | 1019.2 |
| 20260902093818 | 23 | 169 | 0.0 | 0.0 | 0.00 | 0.00 | 0.00 | 80 | 1019.1 |
| 20260902092835 | 23 | 169 | 0.0 | 0.0 | 0.00 | 0.00 | 0.00 | 80 | 1019.2 |
| 20260902091826 | 23 | 169 | 0.0 | 0.0 | 0.00 | 0.00 | 0.00 | 80 | 1019.2 |
| 20260902090844 | 23 | 169 | 0.0 | 0.0 | 0.00 | 0.00 | 0.00 | 80 | 1019.0 |
| 20260902085848 | 23 | 169 | 0.0 | 0.0 | 0.00 | 0.00 | 0.00 | 80 | 1019.0 |
| 20260902084831 | 23 | 168 | 0.0 | 0.0 | 0.00 | 0.00 | 0.00 | 80 | 1018.9 |
| 20260902083824 | 23 | 168 | 0.0 | 3.2 | 0.00 | 0.00 | 0.00 | 79 | 1018.8 |
| 20260902082818 | 23 | 168 | 1.6 | 3.2 | 0.00 | 0.00 | 0.00 | 79 | 1018.8 |
| 20260902081838 | 23 | 168 | 0.0 | 3.2 | 0.00 | 0.00 | 0.00 | 79 | 1018.7 |
| 20260902080829 | 23 | 168 | 0.0 | 3.2 | 0.00 | 0.00 | 0.00 | 80 | 1018.6 |
| 20260902075833 | 23 | 168 | 0.0 | 3.2 | 0.00 | 0.00 | 0.00 | 80 | 1018.6 |
| 20260902074818 | 23 | 168 | 0.0 | 4.8 | 0.00 | 0.00 | 0.00 | 80 | 1018.5 |
| 20260902073839 | 23 | 168 | 0.0 | 4.8 | 0.00 | 0.00 | 0.00 | 80 | 1018.5 |
| 20260902072829 | 23 | 169 | 0.0 | 4.8 | 0.00 | 0.00 | 0.00 | 80 | 1018.6 |
| 20260902071850 | 23 | 169 | 0.0 | 0.0 | 0.00 | 0.00 | 0.00 | 80 | 1018.6 |
| 20260902070821 | 23 | 169 | 0.0 | 0.0 | 0.00 | 0.00 | 0.00 | 80 | 1018.6 |
| 20260902065844 | 23 | 169 | 0.0 | 1.6 | 0.00 | 0.00 | 0.00 | 80 | 1018.6 |
| 20260902064825 | 23 | 169 | 0.0 | 3.2 | 0.00 | 0.00 | 0.00 | 80 | 1018.6 |
| 20260902063819 | 23 | 169 | 0.0 | 1.6 | 0.00 | 0.00 | 0.00 | 80 | 1018.6 |
| 20260902062857 | 23 | 169 | 0.0 | 0.0 | 0.00 | 0.00 | 0.00 | 80 | 1018.6 |
| 20260902061827 | 23 | 169 | 0.0 | 0.0 | 0.00 | 0.00 | 0.00 | 80 | 1018.7 |
| 20260902060818 | 23 | 169 | 0.0 | 1.6 | 0.00 | 0.00 | 0.00 | 80 | 1018.7 |
| 20260902055842 | 23 | 169 | 0.0 | 0.0 | 0.00 | 0.00 | 0.00 | 80 | 1018.7 |
| 20260902054824 | 24 | 169 | 0.0 | 1.6 | 0.00 | 0.00 | 0.00 | 80 | 1018.8 |
| 20260902053844 | 24 | 169 | 0.0 | 1.6 | 0.00 | 0.00 | 0.00 | 79 | 1018.7 |
| 20260902052817 | 24 | 169 | 0.0 | 3.2 | 0.00 | 0.00 | 0.00 | 79 | 1018.7 |
| 20260902051856 | 25 | 169 | 0.0 | 3.2 | 0.00 | 0.00 | 0.00 | 79 | 1018.6 |
| 20260902050826 | 25 | 169 | 0.0 | 3.2 | 0.00 | 0.00 | 0.00 | 79 | 1018.7 |
| 20260902045829 | 25 | 169 | 0.0 | 3.2 | 0.00 | 0.00 | 0.00 | 79 | 1018.7 |
| 20260902044831 | 25 | 169 | 0.0 | 1.6 | 0.00 | 0.00 | 0.00 | 79 | 1018.7 |
| 20260902043824 | 25 | 169 | 0.0 | 1.6 | 0.00 | 0.00 | 0.00 | 79 | 1018.7 |
| 20260902042841 | 25 | 169 | 0.0 | 1.6 | 0.00 | 0.00 | 0.00 | 79 | 1018.7 |
| 20260902041837 | 25 | 169 | 0.0 | 1.6 | 0.00 | 0.00 | 0.00 | 79 | 1018.8 |
| 20260902040828 | 25 | 169 | 0.0 | 3.2 | 0.00 | 0.00 | 0.00 | 78 | 1018.7 |
| 20260902035831 | 25 | 169 | 0.0 | 3.2 | 0.00 | 0.00 | 0.00 | 78 | 1018.7 |
| 20260902034831 | 25 | 169 | 0.0 | 3.2 | 0.00 | 0.00 | 0.00 | 78 | 1018.7 |
| 20260902033826 | 26 | 169 | 0.0 | 1.6 | 0.00 | 0.00 | 0.00 | 78 | 1018.7 |
| 20260902032816 | 26 | 169 | 0.0 | 1.6 | 0.00 | 0.00 | 0.00 | 78 | 1018.7 |
| 20260902031835 | 26 | 169 | 0.0 | 4.8 | 0.00 | 0.00 | 0.00 | 77 | 1018.7 |
| 20260902030826 | 26 | 169 | 0.0 | 3.2 | 0.00 | 0.00 | 0.00 | 77 | 1018.7 |
| 20260902025814 | 26 | 169 | 1.6 | 3.2 | 0.00 | 0.00 | 0.00 | 77 | 1018.7 |
| 20260902024833 | 26 | 169 | 0.0 | 3.2 | 0.00 | 0.00 | 0.00 | 77 | 1018.8 |
| 20260902023830 | 26 | 169 | 0.0 | 4.8 | 0.00 | 0.00 | 0.00 | 77 | 1018.9 |
| 20260902022823 | 26 | 169 | 0.0 | 1.6 | 0.00 | 0.00 | 0.00 | 77 | 1018.8 |
| 20260902021814 | 26 | 169 | 0.0 | 0.0 | 0.00 | 0.00 | 0.00 | 77 | 1018.8 |
| 20260902020832 | 26 | 169 | 0.0 | 0.0 | 0.00 | 0.00 | 0.00 | 77 | 1018.8 |
| 20260902015833 | 26 | 169 | 0.0 | 1.6 | 0.00 | 0.00 | 0.00 | 77 | 1018.7 |
| 20260902014816 | 27 | 169 | 0.0 | 0.0 | 0.00 | 0.00 | 0.00 | 77 | 1018.7 |
| 20260902013835 | 27 | 169 | 0.0 | 0.0 | 0.00 | 0.00 | 0.00 | 76 | 1018.6 |
| 20260902012853 | 27 | 169 | 0.0 | 1.6 | 0.00 | 0.00 | 0.00 | 76 | 1018.5 |
| 20260902011824 | 27 | 169 | 0.0 | 0.0 | 0.00 | 0.00 | 0.00 | 76 | 1018.4 |
| 20260902010815 | 27 | 169 | 0.0 | 0.0 | 0.00 | 0.00 | 0.00 | 75 | 1018.4 |
| 20260902005821 | 27 | 169 | 0.0 | 0.0 | 0.00 | 0.00 | 0.00 | 75 | 1018.3 |
| 20260902004825 | 27 | 169 | 0.0 | 0.0 | 0.00 | 0.00 | 0.00 | 74 | 1018.2 |
| 20260902003843 | 28 | 169 | 0.0 | 0.0 | 0.00 | 0.00 | 0.00 | 73 | 1018.2 |
| 20260902002840 | 28 | 169 | 0.0 | 1.6 | 0.00 | 0.00 | 0.00 | 72 | 1018.2 |
| 20260902001837 | 28 | 169 | 0.0 | 1.6 | 0.00 | 0.00 | 0.00 | 70 | 1018.3 |
| 20260902000830 | 30 | 169 | 0.0 | 1.6 | 0.00 | 0.00 | 0.00 | 69 | 1018.3 |
| 20260901235834 | 30 | 169 | 1.6 | 3.2 | 0.00 | 0.00 | 0.00 | 66 | 1018.3 |
| 20260901234818 | 30 | 169 | 0.0 | 3.2 | 0.00 | 0.00 | 0.00 | 65 | 1018.3 |